H1 CPF 2 NER 2022 5 4 9 124 01 glonass116 H2 0907001 9116 36111 2022 5 4 0 0 0 2022 5 7 23 45 0 900 1 1 0 0 0 1 H9 10 0 59703 0.00000 0 6271467.296 -16503283.870 18411745.048 10 0 59703 900.00000 0 6663672.307 -14157278.197 20147549.525 10 0 59703 1800.00000 0 7273123.853 -11662757.814 21492145.151 10 0 59703 2700.00000 0 8105758.812 -9086485.123 22419511.675 10 0 59703 3600.00000 0 9155285.254 -6496412.770 22911730.530 10 0 59703 4500.00000 0 10403294.607 -3959056.509 22959324.577 10 0 59703 5400.00000 0 11819896.826 -1536941.035 22561435.152 10 0 59703 6300.00000 0 13364852.346 713776.213 21725833.611 10 0 59703 7200.00000 0 14989153.917 2745405.773 20468767.535 10 0 59703 8100.00000 0 16636992.819 4520465.609 18814644.744 10 0 59703 9000.00000 0 18248027.984 6012988.482 16795561.080 10 0 59703 9900.00000 0 19759863.780 7209344.207 14450680.776 10 0 59703 10800.00000 0 21110633.563 8108543.994 11825480.921 10 0 59703 11700.00000 0 22241581.344 8722015.434 8970874.032 10 0 59703 12600.00000 0 23099533.840 9072858.627 5942225.235 10 0 59703 13500.00000 0 23639159.418 9194615.613 2798282.575 10 0 59703 14400.00000 0 23824919.143 9129605.610 -399959.164 10 0 59703 15300.00000 0 23632627.691 8926896.684 -3590439.276 10 0 59703 16200.00000 0 23050558.135 8639999.889 -6711233.723 10 0 59703 17100.00000 0 22080043.490 8324383.600 -9701756.183 10 0 59703 18000.00000 0 20735548.991 8034913.338 -12503934.017 10 0 59703 18900.00000 0 19044211.150 7823325.653 -15063336.204 10 0 59703 19800.00000 0 17044861.935 7735843.192 -17330231.281 10 0 59703 20700.00000 0 14786578.045 7811032.149 -19260554.547 10 0 59703 21600.00000 0 12326814.985 8077993.143 -20816765.811 10 0 59703 22500.00000 0 9729202.966 8554962.560 -21968581.032 10 0 59703 23400.00000 0 7061095.862 9248384.122 -22693563.651 10 0 59703 24300.00000 0 4390974.539 10152490.775 -22977564.169 10 0 59703 25200.00000 0 1785812.034 11249415.555 -22814999.352 10 0 59703 26100.00000 0 -691490.347 12509827.882 -22208965.474 10 0 59703 27000.00000 0 -2984489.908 13894069.646 -21171183.085 10 0 59703 27900.00000 0 -5045313.620 15353744.423 -19721773.987 10 0 59703 28800.00000 0 -6836405.941 16833693.875 -17888874.233 10 0 59703 29700.00000 0 -8331841.118 18274278.971 -15708090.200 10 0 59703 30600.00000 0 -9518145.904 19613870.527 -13221807.786 10 0 59703 31500.00000 0 -10394598.992 20791444.384 -10478367.911 10 0 59703 32400.00000 0 -10972995.623 21749171.840 -7531124.202 10 0 59703 33300.00000 0 -11276888.365 22434895.855 -4437401.266 10 0 59703 34200.00000 0 -11340337.188 22804388.099 -1257374.278 10 0 59703 35100.00000 0 -11206222.923 22823291.082 1947107.773 10 0 59703 36000.00000 0 -10924196.656 22468662.868 5113731.544 10 0 59703 36900.00000 0 -10548353.081 21730058.691 8180937.052 10 0 59703 37800.00000 0 -10134727.473 20610103.563 11089119.209 10 0 59703 38700.00000 0 -9738723.250 19124531.447 13781789.169 10 0 59703 39600.00000 0 -9412579.774 17301689.311 16206672.423 10 0 59703 40500.00000 0 -9202988.047 15181526.851 18316722.202 10 0 59703 41400.00000 0 -9148955.319 12814114.204 20071028.723 10 0 59703 42300.00000 0 -9280008.811 10257749.697 21435607.049 10 0 59703 43200.00000 0 -9614814.147 7576736.438 22384049.014 10 0 59703 44100.00000 0 -10160266.477 4838920.064 22898027.451 10 0 59703 45000.00000 0 -10911092.286 2113089.616 22967643.802 10 0 59703 45900.00000 0 -11849978.464 -533651.277 22591613.217 10 0 59703 46800.00000 0 -12948223.255 -3038434.787 21777284.219 10 0 59703 47700.00000 0 -14166881.924 -5344996.138 20540492.950 10 0 59703 48600.00000 0 -15458359.503 -7405760.823 18905255.026 10 0 59703 49500.00000 0 -16768384.342 -9183566.577 16903300.787 10 0 59703 50400.00000 0 -18038280.335 -10652949.835 14573462.675 10 0 59703 51300.00000 0 -19207443.152 -11800944.586 11960926.086 10 0 59703 52200.00000 0 -20215917.150 -12627361.551 9116357.593 10 0 59703 53100.00000 0 -21006965.192 -13144537.159 6094926.931 10 0 59703 54000.00000 0 -21529523.650 -13376563.831 2955241.163 10 0 59703 54900.00000 0 -21740439.409 -13358034.697 -241788.705 10 0 59703 55800.00000 0 -21606394.534 -13132356.158 -3434126.829 10 0 59703 56700.00000 0 -21105437.163 -12749699.872 -6559814.573 10 0 59703 57600.00000 0 -20228053.506 -12264680.919 -9558172.156 10 0 59703 58500.00000 0 -18977734.983 -11733860.418 -12370976.369 10 0 59703 59400.00000 0 -17371015.619 -11213178.323 -14943591.382 10 0 59703 60300.00000 0 -15436976.947 -10755425.045 -17226030.586 10 0 59703 61200.00000 0 -13216240.011 -10407858.937 -19173928.693 10 0 59703 62100.00000 0 -10759485.457 -10210070.498 -20749405.239 10 0 59703 63000.00000 0 -8125562.330 -10192183.800 -21921802.765 10 0 59703 63900.00000 0 -5379263.519 -10373471.437 -22668285.341 10 0 59703 64800.00000 0 -2588859.494 -10761441.923 -22974285.851 10 0 59703 65700.00000 0 176507.881 -11351438.682 -22833793.306 10 0 59703 66600.00000 0 2849463.748 -12126768.242 -22249474.396 10 0 59703 67500.00000 0 5366961.823 -13059353.060 -21232626.660 10 0 59703 68400.00000 0 7672663.197 -14110882.296 -19802963.750 10 0 59703 69300.00000 0 9719033.816 -15234412.828 -17988236.462 10 0 59703 70200.00000 0 11469073.792 -16376353.655 -15823696.411 10 0 59703 71100.00000 0 12897607.010 -17478750.505 -13351412.252 10 0 59703 72000.00000 0 13992077.691 -18481774.468 -10619451.489 10 0 59703 72900.00000 0 14752821.388 -19326309.585 -7680943.586 10 0 59703 73800.00000 0 15192800.008 -19956529.841 -4593042.719 10 0 59703 74700.00000 0 15336813.007 -20322356.214 -1415810.743 10 0 59703 75600.00000 0 15220219.275 -20381689.345 1788957.328 10 0 59703 76500.00000 0 14887224.893 -20102322.796 4958941.749 10 0 59703 77400.00000 0 14388810.382 -19463455.436 8032515.967 10 0 59703 78300.00000 0 13780386.312 -18456738.538 10949949.569 10 0 59703 79200.00000 0 13119277.507 -17086812.919 13654572.236 10 0 59703 80100.00000 0 12462143.067 -15371313.189 16093875.540 10 0 59703 81000.00000 0 11862441.871 -13340338.665 18220531.075 10 0 59703 81900.00000 0 11368050.895 -11035412.889 19993305.336 10 0 59703 82800.00000 0 11019136.835 -8507975.160 21377853.973 10 0 59703 83700.00000 0 10846370.505 -5817466.798 22347380.765 10 0 59703 84600.00000 0 10869558.765 -3029091.461 22883149.390 10 0 59703 85500.00000 0 11096751.000 -211342.263 22974838.923 10 0 59704 0.00000 0 11523857.134 2566602.128 22620737.103 10 0 59704 900.00000 0 12134793.073 5237506.768 21827767.995 10 0 59704 1800.00000 0 12902146.604 7738623.311 20611354.539 10 0 59704 2700.00000 0 13788336.494 10014047.278 18995118.180 10 0 59704 3600.00000 0 14747215.768 12016789.433 17010421.671 10 0 59704 4500.00000 0 15726052.358 13710478.009 14695763.471 10 0 59704 5400.00000 0 16667804.310 15070622.061 12096035.015 10 0 59704 6300.00000 0 17513594.374 16085384.519 9261654.604 10 0 59704 7200.00000 0 18205280.297 16755833.719 6247594.203 10 0 59704 8100.00000 0 18688012.892 17095663.881 3112317.480 10 0 59704 9000.00000 0 18912674.248 17130397.040 -83350.741 10 0 59704 9900.00000 0 18838093.204 16896100.567 -3277401.835 10 0 59704 10800.00000 0 18432944.305 16437674.744 -6407844.810 10 0 59704 11700.00000 0 17677249.570 15806782.866 -9413908.506 10 0 59704 12600.00000 0 16563418.947 15059511.391 -12237221.016 10 0 59704 13500.00000 0 15096784.535 14253859.024 -14822943.330 10 0 59704 14400.00000 0 13295604.861 13447160.796 -17120835.084 10 0 59704 15300.00000 0 11190537.672 12693555.910 -19086231.563 10 0 59704 16200.00000 0 8823601.909 12041606.257 -20680913.001 10 0 59704 17100.00000 0 6246670.849 11532166.134 -21873849.334 10 0 59704 18000.00000 0 3519558.041 11196593.078 -22641805.928 10 0 59704 18900.00000 0 707774.601 11055375.423 -22969798.574 10 0 59704 19800.00000 0 -2119949.893 11117234.644 -22851388.857 10 0 59704 20700.00000 0 -4894280.609 11378740.665 -22288813.987 10 0 59704 21600.00000 0 -7547916.930 11824456.727 -21292948.293 10 0 59704 22500.00000 0 -10018149.097 12427608.186 -19883096.738 10 0 59704 23400.00000 0 -12249226.084 13151247.480 -18086623.960 10 0 59704 24300.00000 0 -14194436.629 13949866.565 -15938425.552 10 0 59704 25200.00000 0 -15817817.072 14771389.013 -13480251.355 10 0 59704 26100.00000 0 -17095415.101 15559457.791 -10759893.608 10 0 59704 27000.00000 0 -18016057.128 16255921.935 -7830255.565 10 0 59704 27900.00000 0 -18581587.841 16803416.660 -4748318.757 10 0 59704 28800.00000 0 -18806572.680 17147927.268 -1574029.387 10 0 59704 29700.00000 0 -18717476.806 17241227.691 1630873.937 10 0 59704 30600.00000 0 -18351356.321 17043089.744 4804067.583 10 0 59704 31500.00000 0 -17754118.122 16523168.872 7883861.009 10 0 59704 32400.00000 0 -16978423.131 15662485.951 10810401.106 10 0 59704 33300.00000 0 -16081322.555 14454441.911 13526838.726 10 0 59704 34200.00000 0 -15121727.959 12905321.875 15980434.141 10 0 59704 35100.00000 0 -14157822.635 11034267.137 18123579.840 10 0 59704 36000.00000 0 -13244523.871 8872715.739 19914720.970 10 0 59704 36900.00000 0 -12431103.098 6463334.752 21319155.926 10 0 59704 37800.00000 0 -11759063.876 3858488.500 22309702.303 10 0 59704 38700.00000 0 -11260366.408 1118306.097 22867216.140 10 0 59704 39600.00000 0 -10956072.506 -1691571.760 22980955.275 10 0 59704 40500.00000 0 -10855467.060 -4502473.860 22648780.616 10 0 59704 41400.00000 0 -10955692.111 -7245305.326 21877192.109 10 0 59704 42300.00000 0 -11241908.164 -9853173.022 20681199.181 10 0 59704 43200.00000 0 -11687975.469 -12263921.810 19084028.320 10 0 59704 44100.00000 0 -12257626.336 -14422477.622 17116673.405 10 0 59704 45000.00000 0 -12906079.179 -16282901.193 14817297.161 10 0 59704 45900.00000 0 -13582026.510 -17810068.282 12230494.883 10 0 59704 46800.00000 0 -14229913.474 -18980907.515 9406434.056 10 0 59704 47700.00000 0 -14792411.240 -19785145.158 6399886.044 10 0 59704 48600.00000 0 -15212981.234 -20225526.557 3269168.066 10 0 59704 49500.00000 0 -15438422.176 -20317505.697 75015.547 10 0 59704 50400.00000 0 -15421292.372 -20088416.425 -3120593.432 10 0 59704 51300.00000 0 -15122104.736 -19576160.591 -6255638.913 10 0 59704 52200.00000 0 -14511201.327 -18827468.616 -9269261.761 10 0 59704 53100.00000 0 -13570227.545 -17895805.892 -12102944.731 10 0 59704 54000.00000 0 -12293142.786 -16839013.328 -14701648.880 10 0 59704 54900.00000 0 -10686723.715 -15716781.520 -17014883.130 10 0 59704 55800.00000 0 -8770537.620 -14588064.942 -18997686.073 10 0 59704 56700.00000 0 -6576385.403 -13508545.039 -20611500.964 10 0 59704 57600.00000 0 -4147235.933 -12528248.972 -21824926.950 10 0 59704 58500.00000 0 -1535694.830 -11689424.177 -22614331.932 10 0 59704 59400.00000 0 1197929.914 -11024758.096 -22964315.235 10 0 59704 60300.00000 0 3987886.225 -10556017.927 -22868011.055 10 0 59704 61200.00000 0 6765467.176 -10293167.636 -22327226.576 10 0 59704 62100.00000 0 9461628.597 -10233999.403 -21352411.872 10 0 59704 63000.00000 0 12009626.952 -10364295.110 -19962461.705 10 0 59704 63900.00000 0 14347568.178 -10658511.147 -18184352.624 10 0 59704 64800.00000 0 16420761.825 -11080957.752 -16052621.883 10 0 59704 65700.00000 0 18183782.680 -11587423.106 -13608697.809 10 0 59704 66600.00000 0 19602154.035 -12127173.509 -10900094.320 10 0 59704 67500.00000 0 20653582.556 -12645244.815 -7979485.072 10 0 59704 68400.00000 0 21328693.486 -13084927.780 -4903675.301 10 0 59704 69300.00000 0 21631235.854 -13390341.512 -1732491.721 10 0 59704 70200.00000 0 21577749.839 -13508985.342 1472387.350 10 0 59704 71100.00000 0 21196711.239 -13394160.197 4648638.208 10 0 59704 72000.00000 0 20527190.088 -13007156.112 7734509.918 10 0 59704 72900.00000 0 19617081.134 -12319112.485 10670029.943 10 0 59704 73800.00000 0 18520981.900 -11312471.636 13398173.128 10 0 59704 74700.00000 0 17297808.775 -9981963.669 15865970.760 10 0 59704 75600.00000 0 16008252.427 -8335080.501 18025538.000 10 0 59704 76500.00000 0 14712180.162 -6392018.600 19834999.872 10 0 59704 77400.00000 0 13466094.746 -4185092.374 21259298.207 10 0 59704 78300.00000 0 12320756.275 -1757642.238 22270864.585 10 0 59704 79200.00000 0 11319066.446 837517.588 22850147.104 10 0 59704 80100.00000 0 10494303.213 3540047.440 22985981.596 10 0 59704 81000.00000 0 9868778.845 6284346.437 22675801.006 10 0 59704 81900.00000 0 9452976.529 9002039.390 21925679.550 10 0 59704 82800.00000 0 9245200.689 11624584.033 20750211.267 10 0 59704 83700.00000 0 9231754.682 14085891.472 19172225.540 10 0 59704 84600.00000 0 9387637.666 16324852.220 17222344.995 10 0 59704 85500.00000 0 9677730.841 18287663.896 14938394.076 10 0 59705 0.00000 0 10058422.853 19929864.789 12364669.508 10 0 59705 900.00000 0 10479606.049 21217990.411 9551084.727 10 0 59705 1800.00000 0 10886959.020 22130782.594 6552207.896 10 0 59705 2700.00000 0 11224419.899 22659904.340 3426206.945 10 0 59705 3600.00000 0 11436745.625 22810128.752 233725.101 10 0 59705 4500.00000 0 11472049.184 22598995.509 -2963292.796 10 0 59705 5400.00000 0 11284207.424 22055949.430 -6102800.348 10 0 59705 6300.00000 0 10835037.227 21220997.529 -9123852.734 10 0 59705 7200.00000 0 10096147.492 20142941.108 -11967789.383 10 0 59705 8100.00000 0 9050387.796 18877257.269 -14579373.105 10 0 59705 9000.00000 0 7692831.484 17483718.938 -16907863.492 10 0 59705 9900.00000 0 6031250.431 16023853.410 -18908003.532 10 0 59705 10800.00000 0 4086059.978 14558346.150 -20540900.334 10 0 59705 11700.00000 0 1889734.665 13144498.765 -21774782.865 10 0 59705 12600.00000 0 -514282.385 11833847.772 -22585621.977 10 0 59705 13500.00000 0 -3073132.495 10670043.915 -22957600.752 10 0 59705 14400.00000 0 -5726493.605 9687080.798 -22883425.987 10 0 59705 15300.00000 0 -8408851.488 8907947.013 -22364474.584 10 0 59705 16200.00000 0 -11051996.554 8343758.085 -21410771.782 10 0 59705 17100.00000 0 -13587643.227 7993404.467 -20040801.235 10 0 59705 18000.00000 0 -15950063.373 7843730.180 -18281150.149 10 0 59705 18900.00000 0 -18078624.551 7870234.300 -16165995.873 10 0 59705 19800.00000 0 -19920127.518 8038265.404 -13736443.386 10 0 59705 20700.00000 0 -21430845.434 8304658.255 -11039726.252 10 0 59705 21600.00000 0 -22578179.694 8619743.051 -8128286.376 10 0 59705 22500.00000 0 -23341863.168 8929641.704 -5058750.449 10 0 59705 23400.00000 0 -23714660.590 9178753.190 -1890823.414 10 0 59705 24300.00000 0 -23702537.169 9312321.906 1313879.040 10 0 59705 25200.00000 0 -23324288.877 9278979.260 4493035.508 10 0 59705 26100.00000 0 -22610650.812 9033149.901 7584837.079 10 0 59705 27000.00000 0 -21602922.074 8537219.771 10529194.228 10 0 59705 27900.00000 0 -20351166.074 7763373.348 13268908.254 10 0 59705 28800.00000 0 -18912063.005 6695021.732 15750783.878 10 0 59705 29700.00000 0 -17346505.679 5327760.607 17926661.250 10 0 59705 30600.00000 0 -15717040.390 3669817.138 19754347.418 10 0 59705 31500.00000 0 -14085260.603 1741966.529 21198429.537 10 0 59705 32400.00000 0 -12509262.752 -423078.831 22230954.763 10 0 59705 33300.00000 0 -11041270.310 -2781782.675 22831964.474 10 0 59705 34200.00000 0 -9725524.918 -5281354.736 22989873.338 10 0 59705 35100.00000 0 -8596531.726 -7861712.545 22701686.778 10 0 59705 36000.00000 0 -7677731.127 -10457754.402 21973053.306 10 0 59705 36900.00000 0 -6980651.192 -13001849.877 20818151.208 10 0 59705 37800.00000 0 -6504574.939 -15426445.438 19259411.988 10 0 59705 38700.00000 0 -6236735.234 -17666677.970 17327085.870 10 0 59705 39600.00000 0 -6153028.209 -19662888.508 15058657.494 10 0 59705 40500.00000 0 -6219214.465 -21362932.592 12498122.673 10 0 59705 41400.00000 0 -6392557.074 -22724191.867 9695139.584 10 0 59705 42300.00000 0 -6623827.124 -23715203.671 6704070.356 10 0 59705 43200.00000 0 -6859592.067 -24316841.149 3582931.047 10 0 59705 44100.00000 0 -7044690.219 -24522994.907 392269.954 10 0 59705 45000.00000 0 -7124786.762 -24340727.860 -2806004.182 10 0 59705 45900.00000 0 -7048903.011 -23789896.969 -5949821.484 10 0 59705 46800.00000 0 -6771811.663 -22902257.689 -8978154.478 10 0 59705 47700.00000 0 -6256196.233 -21720088.743 -11832202.331 10 0 59705 48600.00000 0 -5474482.668 -20294394.841 -14456532.661 10 0 59705 49500.00000 0 -4410264.793 -18682762.681 -16800158.675 10 0 59705 50400.00000 0 -3059262.291 -16946960.086 -18817530.515 10 0 59705 51300.00000 0 -1429769.445 -15150378.824 -20469421.606 10 0 59705 52200.00000 0 457425.828 -13355428.073 -21723692.809 10 0 59705 53100.00000 0 2569650.872 -11620987.582 -22555919.541 10 0 59705 54000.00000 0 4863461.338 -10000026.863 -22949869.752 10 0 59705 54900.00000 0 7286213.513 -8537489.789 -22897823.434 10 0 59705 55800.00000 0 9778031.678 -7268532.843 -22400727.304 10 0 59705 56700.00000 0 12274089.771 -6217190.393 -21468181.393 10 0 59705 57600.00000 0 14707113.285 -5395522.475 -20118257.423 10 0 59705 58500.00000 0 17009997.764 -4803280.424 -18377152.002 10 0 59705 59400.00000 0 19118435.233 -4428103.852 -16278680.872 10 0 59705 60300.00000 0 20973439.209 -4246240.115 -13863623.523 10 0 59705 61200.00000 0 22523662.768 -4223755.365 -11178930.571 10 0 59705 62100.00000 0 23727412.699 -4318185.359 -8276809.123 10 0 59705 63000.00000 0 24554275.281 -4480555.474 -5213703.898 10 0 59705 63900.00000 0 24986285.418 -4657683.609 -2049194.331 10 0 59705 64800.00000 0 25018590.154 -4794667.469 1155170.427 10 0 59705 65700.00000 0 24659578.934 -4837449.851 4337075.219 10 0 59705 66600.00000 0 23930475.586 -4735352.201 7434656.992 10 0 59705 67500.00000 0 22864409.830 -4443468.103 10387712.830 10 0 59705 68400.00000 0 21505008.148 -3924814.432 13138873.703 10 0 59705 69300.00000 0 19904564.080 -3152148.398 15634720.554 10 0 59705 70200.00000 0 18121865.640 -2109373.014 17826820.811 10 0 59705 71100.00000 0 16219771.623 -792471.109 19672665.328 10 0 59705 72000.00000 0 14262638.867 790071.904 21136487.867 10 0 59705 72900.00000 0 12313708.251 2617374.802 22189951.927 10 0 59705 73800.00000 0 10432558.451 4656792.927 22812692.448 10 0 59705 74700.00000 0 8672733.274 6865050.263 22992702.727 10 0 59705 75600.00000 0 7079640.592 9189824.653 22726559.982 10 0 59705 76500.00000 0 5688809.376 11571720.901 22019485.878 10 0 59705 77400.00000 0 4524576.189 13946550.398 20885241.365 10 0 59705 78300.00000 0 3599254.499 16247823.389 19345858.091 10 0 59705 79200.00000 0 2912820.097 18409351.189 17431211.557 10 0 59705 80100.00000 0 2453124.535 20367850.909 15178444.000 10 0 59705 81000.00000 0 2196626.468 22065445.139 12631247.739 10 0 59705 81900.00000 0 2109609.369 23451953.135 9839022.238 10 0 59705 82800.00000 0 2149833.750 24486878.443 6855920.718 10 0 59705 83700.00000 0 2268553.866 25141010.328 3739804.221 10 0 59705 84600.00000 0 2412813.515 25397572.269 551122.971 10 0 59705 85500.00000 0 2527923.799 25252869.438 -2648253.446 10 0 59706 0.00000 0 2560017.856 24716408.055 -5796234.288 10 0 59706 900.00000 0 2458574.253 23810481.051 -8831712.664 10 0 59706 1800.00000 0 2178801.881 22569237.975 -11695749.549 10 0 59706 2700.00000 0 1683784.974 21037276.915 -14332719.397 10 0 59706 3600.00000 0 946296.738 19267817.780 -16691390.700 10 0 59706 4500.00000 0 -49795.910 17320533.001 -18725922.084 10 0 59706 5400.00000 0 -1308596.978 15259126.202 -20396754.299 10 0 59706 6300.00000 0 -2821756.180 13148759.861 -21671380.824 10 0 59706 7200.00000 0 -4568573.260 11053439.232 -22524982.099 10 0 59706 8100.00000 0 -6516629.111 9033461.517 -22940911.129 10 0 59706 9000.00000 0 -8622918.889 7143036.431 -22911021.016 10 0 59706 9900.00000 0 -10835441.210 5428177.212 -22435827.879 10 0 59706 10800.00000 0 -13095178.412 3924949.663 -21524505.791 10 0 59706 11700.00000 0 -15338386.342 2658151.903 -20194713.424 10 0 59706 12600.00000 0 -17499098.869 1640479.530 -18472255.306 10 0 59706 13500.00000 0 -19511743.124 872210.478 -16390583.771 10 0 59706 14400.00000 0 -21313756.488 341422.093 -13990150.741 10 0 59706 15300.00000 0 -22848095.834 24730.483 -11317621.605 10 0 59706 16200.00000 0 -24065533.862 -111479.865 -8424966.270 10 0 59706 17100.00000 0 -24926645.979 -109389.072 -5368445.006 10 0 59706 18000.00000 0 -25403404.026 -17708.916 -2207509.218 10 0 59706 18900.00000 0 -25480309.714 110628.927 996361.024 10 0 59706 19800.00000 0 -25155020.010 220964.434 4180859.372 10 0 59706 20700.00000 0 -24438438.272 259473.887 7284071.200 10 0 59706 21600.00000 0 -23354267.609 175697.897 10245682.748 10 0 59706 22500.00000 0 -21938045.698 -75075.259 13008157.172 10 0 59706 23400.00000 0 -20235702.222 -529672.674 15517854.031 10 0 59706 24300.00000 0 -18301700.127 -1215237.263 17726070.262 10 0 59706 25200.00000 0 -16196839.157 -2147842.173 19589982.500 10 0 59706 26100.00000 0 -13985814.084 -3331577.961 21073472.767 10 0 59706 27000.00000 0 -11734629.858 -4758151.333 22147822.192 10 0 59706 27900.00000 0 -9507981.393 -6407012.738 22792260.157 10 0 59706 28800.00000 0 -7366706.848 -8246007.859 22994359.069 10 0 59706 29700.00000 0 -5365419.605 -10232526.309 22750268.027 10 0 59706 30600.00000 0 -3550416.418 -12315100.258 22064781.569 10 0 59706 31500.00000 0 -1957947.542 -14435386.972 20951242.688 10 0 59706 32400.00000 0 -612919.352 -16530453.484 19431282.241 10 0 59706 33300.00000 0 471918.005 -18535269.109 17534399.770 10 0 59706 34200.00000 0 1296265.439 -20385302.662 15297393.588 10 0 59706 35100.00000 0 1872041.311 -22019116.956 12763650.731 10 0 59706 36000.00000 0 2222630.328 -23380852.936 9982309.909 10 0 59706 36900.00000 0 2381647.385 -24422500.170 7007313.183 10 0 59706 37800.00000 0 2391269.079 -25105859.079 3896364.151 10 0 59706 38700.00000 0 2300203.721 -25404112.874 709812.407 10 0 59706 39600.00000 0 2161385.848 -25302943.229 -2490514.280 10 0 59706 40500.00000 0 2029492.955 -24801142.683 -5642507.596 10 0 59706 41400.00000 0 1958389.697 -23910697.667 -8684982.872 10 0 59706 42300.00000 0 1998608.003 -22656338.196 -11558866.280 10 0 59706 43200.00000 0 2194970.111 -21074572.579 -14208341.887 10 0 59706 44100.00000 0 2584455.615 -19212247.040 -16581936.182 10 0 59706 45000.00000 0 3194403.364 -17124690.027 -18633518.820 10 0 59706 45900.00000 0 4041125.076 -14873518.379 -20323200.193 10 0 59706 46800.00000 0 5128990.231 -12524196.481 -21618108.388 10 0 59706 47700.00000 0 6450022.041 -10143449.955 -22493030.465 10 0 59706 48600.00000 0 7984022.895 -7796641.313 -22930905.660 10 0 59706 49500.00000 0 9699225.541 -5545216.512 -22923160.910 10 0 59706 50400.00000 0 11553444.094 -3444328.471 -22469882.031 10 0 59706 51300.00000 0 13495678.088 -1540736.075 -21579817.011 10 0 59706 52200.00000 0 15468103.636 128934.255 -20270210.936 10 0 59706 53100.00000 0 17408369.281 1539492.394 -18566475.325 10 0 59706 54000.00000 0 19252101.167 2677999.967 -16501697.765 10 0 59706 54900.00000 0 20935513.030 3544064.075 -14116000.847 10 0 59706 55800.00000 0 22398011.674 4149597.774 -11455762.542 10 0 59706 56700.00000 0 23584688.543 4518058.409 -8572712.918 10 0 59706 57600.00000 0 24448592.468 4683196.940 -5522924.771 10 0 59706 58500.00000 0 24952687.613 4687372.152 -2365718.116 10 0 59706 59400.00000 0 25071413.872 4579502.219 837499.638 10 0 59706 60300.00000 0 24791783.687 4412741.541 4024434.633 10 0 59706 61200.00000 0 24113968.899 4241982.382 7133124.328 10 0 59706 62100.00000 0 23051352.890 4121288.329 10103147.623 10 0 59706 63000.00000 0 21630045.927 4101369.277 12876803.107 10 0 59706 63900.00000 0 19887884.403 4227205.689 15400231.882 10 0 59706 64800.00000 0 17872956.323 4535923.323 17624462.932 10 0 59706 65700.00000 0 15641715.212 5055008.687 19506360.814 10 0 59706 66600.00000 0 13256761.713 5800940.872 21009457.521 10 0 59706 67500.00000 0 10784385.657 6778297.597 22104653.099 10 0 59706 68400.00000 0 8291970.983 7979373.299 22770772.206 10 0 59706 69300.00000 0 5845371.244 9384325.480 22994966.723 10 0 59706 70200.00000 0 3506364.137 10961843.501 22772957.506 10 0 59706 71100.00000 0 1330289.833 12670312.282 22109111.343 10 0 59706 72000.00000 0 -636029.909 14459422.781 21016352.145 10 0 59706 72900.00000 0 -2356006.849 16272162.643 19515908.371 10 0 59706 73800.00000 0 -3804565.770 18047104.695 17636901.555 10 0 59706 74700.00000 0 -4968936.560 19720898.402 15415783.665 10 0 59706 75600.00000 0 -5848927.364 21230860.990 12895633.724 10 0 59706 76500.00000 0 -6456668.709 22517560.552 10125326.751 10 0 59706 77400.00000 0 -6815840.406 23527283.492 7158590.555 10 0 59706 78300.00000 0 -6960414.679 24214283.291 4052968.108 10 0 59706 79200.00000 0 -6932969.062 24542716.398 868705.181 10 0 59706 80100.00000 0 -6782640.716 24488183.851 -2332415.440 10 0 59706 81000.00000 0 -6562808.883 24038813.595 -5488270.644 10 0 59706 81900.00000 0 -6328603.717 23195837.482 -8537601.437 10 0 59706 82800.00000 0 -6134347.084 21973638.085 -11421201.540 10 0 59706 83700.00000 0 -6031033.876 20399262.581 -14083066.992 10 0 59706 84600.00000 0 -6063960.727 18511423.250 -16471484.301 10 0 59706 85500.00000 0 -6270602.869 16359025.664 -18540035.839 99